Location: ???????
(55.3754°N, 39.3545°E)
Time: 18:46:37
(UTC+00:00)

Cosmos 1782 Rocket - Pass Details

Date: 14 April 2026
Orbit: 601 x 624 km, 82.5° (Epoch: 19 May)

Event Time Altitude Azimuth Distance (km) Brightness Sun altitude
Exits shadow 19:01:54 35° 104° (ESE) 985 4.2 -18.7°
Maximum altitude 19:02:17 36° 91° (E) 971 4.2 -18.7°
Drops below altitude 10° 19:06:14 10° 26° (NNE) 1,959 6.5 -19.0°
Sets 19:08:34 0° 18° (NNE) 2,867 7.5 -19.2°
